Total_Precipitation_Accumulation
0.14 0.14 0.13 0.17 0.20 0.25 0.31 0.37 0.54 0.70 0.86 0.98 1.12 1.38 1.54 1.64 1.62 1.63 1.70 1.62 1.43 1.49 1.60 1.56 1.77 1.82 1.77 1.76 1.67 1.72 1.71 1.42 1.20 1.35 1.24 0.84 0.58 0.49 0.45 0.39 0.37 0.35 0.33
0.07 0.06 0.07 0.09 0.12 0.16 0.22 0.30 0.44 0.67 0.92 1.14 1.33 1.52 1.83 1.99 1.99 2.05 2.00 1.95 1.83 1.82 1.74 1.79 2.00 2.04 2.13 2.21 2.03 2.08 2.10 1.77 1.44 1.70 1.95 1.44 1.04 0.61 0.43 0.43 0.43 0.41 0.39
0.07 0.06 0.05 0.06 0.07 0.09 0.14 0.21 0.34 0.57 0.88 1.19 1.44 1.63 1.87 2.14 2.23 2.13 2.09 2.12 2.19 2.22 2.10 2.05 2.15 2.16 2.21 2.35 2.38 2.31 2.31 2.16 1.84 1.76 2.02 1.78 1.48 1.15 0.62 0.47 0.52 0.55 0.49
0.10 0.08 0.06 0.06 0.07 0.10 0.13 0.17 0.32 0.48 0.72 0.99 1.31 1.57 1.83 2.14 2.22 2.19 2.16 2.20 2.31 2.39 2.34 2.28 2.32 2.30 2.23 2.28 2.37 2.36 2.49 2.59 2.27 2.01 1.75 1.55 1.50 1.45 1.08 0.69 0.58 0.65 0.64
0.15 0.12 0.10 0.10 0.12 0.15 0.18 0.24 0.38 0.53 0.74 0.98 1.30 1.62 1.81 1.98 2.17 2.19 2.10 2.03 2.08 2.09 2.08 2.18 2.30 2.29 2.26 2.24 2.39 2.51 2.64 2.58 2.46 2.26 2.08 1.89 1.66 1.30 1.30 1.20 0.94 0.81 0.69
0.14 0.17 0.21 0.22 0.22 0.24 0.30 0.38 0.50 0.71 0.87 0.97 1.11 1.28 1.49 1.77 1.91 2.00 2.04 2.04 2.00 1.86 1.81 1.90 1.99 2.07 2.11 2.10 2.12 2.25 2.38 2.50 2.59 2.48 2.25 2.09 1.92 1.71 1.58 1.29 1.15 1.12 0.90
0.25 0.33 0.43 0.40 0.37 0.40 0.49 0.56 0.63 0.73 0.79 0.78 0.86 0.99 1.15 1.36 1.50 1.60 1.79 1.85 1.87 1.79 1.73 1.69 1.76 1.85 1.87 1.98 2.13 2.08 2.08 2.21 2.37 2.36 2.27 2.20 1.98 1.84 1.85 1.65 1.35 1.23 1.02
0.39 0.54 0.65 0.70 0.64 0.62 0.64 0.62 0.63 0.60 0.61 0.66 0.73 0.80 0.86 1.00 1.12 1.20 1.36 1.48 1.47 1.43 1.38 1.41 1.50 1.68 1.78 1.86 1.96 1.96 1.93 1.97 2.03 2.07 2.12 2.12 2.04 1.84 1.74 1.74 1.79 1.54 1.24
0.57 0.73 0.86 0.93 0.87 0.78 0.72 0.68 0.68 0.65 0.58 0.60 0.68 0.74 0.79 0.80 0.84 0.88 0.88 0.96 1.04 1.05 1.08 1.12 1.25 1.42 1.56 1.62 1.68 1.78 1.81 1.83 1.81 1.87 1.91 1.86 1.91 1.82 1.66 1.60 1.62 1.67 1.44
0.80 0.91 0.98 0.97 0.96 1.00 0.93 0.77 0.71 0.71 0.66 0.73 0.74 0.72 0.70 0.68 0.67 0.70 0.76 0.77 0.85 0.95 1.02 1.03 1.09 1.18 1.28 1.39 1.53 1.62 1.69 1.66 1.61 1.60 1.64 1.68 1.73 1.81 1.80 1.75 1.66 1.60 1.49
1.00 1.02 1.08 1.01 0.89 0.89 0.87 0.84 0.79 0.73 0.75 0.80 0.80 0.70 0.67 0.67 0.67 0.65 0.67 0.74 0.83 0.93 0.96 1.01 1.05 1.06 1.15 1.20 1.29 1.39 1.50 1.47 1.45 1.39 1.40 1.52 1.57 1.75 1.82 1.79 1.71 1.65 1.57
0.94 0.98 1.04 0.97 0.81 0.77 0.68 0.71 0.79 0.79 0.85 0.86 0.79 0.71 0.71 0.74 0.79 0.77 0.69 0.70 0.76 0.78 0.88 0.98 0.97 0.97 1.03 1.11 1.19 1.27 1.30 1.31 1.25 1.19 1.20 1.30 1.39 1.53 1.67 1.75 1.65 1.63 1.58
0.73 0.72 0.73 0.80 0.76 0.72 0.64 0.70 0.76 0.81 0.85 0.86 0.84 0.76 0.66 0.69 0.74 0.75 0.68 0.65 0.69 0.73 0.87 0.97 1.05 0.98 0.90 1.00 1.06 1.11 1.13 1.08 1.02 1.01 1.02 1.08 1.14 1.25 1.38 1.51 1.60 1.58 1.53
0.52 0.50 0.46 0.52 0.55 0.57 0.62 0.66 0.77 0.89 0.93 0.91 0.85 0.81 0.75 0.78 0.73 0.63 0.61 0.63 0.62 0.59 0.67 0.78 0.85 0.89 0.85 0.84 0.85 0.89 1.01 0.97 0.88 0.81 0.81 0.86 0.88 0.94 1.08 1.23 1.38 1.51 1.60
0.37 0.35 0.32 0.32 0.34 0.37 0.45 0.52 0.65 0.81 0.93 0.97 0.92 0.85 0.79 0.70 0.63 0.57 0.50 0.52 0.48 0.46 0.52 0.68 0.83 0.88 0.86 0.88 0.88 0.82 0.85 0.89 0.90 0.82 0.74 0.70 0.69 0.75 0.85 0.96 1.18 1.36 1.50
0.27 0.24 0.24 0.21 0.23 0.29 0.36 0.36 0.48 0.63 0.74 0.79 0.80 0.81 0.77 0.61 0.54 0.48 0.41 0.39 0.41 0.41 0.44 0.51 0.66 0.80 0.78 0.91 0.95 0.90 0.82 0.83 0.82 0.80 0.80 0.81 0.76 0.65 0.59 0.63 0.78 1.00 1.21
0.23 0.21 0.20 0.21 0.23 0.30 0.31 0.32 0.41 0.52 0.57 0.61 0.64 0.66 0.61 0.49 0.43 0.35 0.31 0.34 0.35 0.38 0.40 0.46 0.58 0.71 0.85 0.86 0.76 0.85 0.84 0.80 0.80 0.76 0.76 0.82 0.82 0.85 0.73 0.65 0.63 0.68 0.85
0.16 0.21 0.18 0.17 0.19 0.24 0.29 0.37 0.40 0.41 0.41 0.45 0.49 0.47 0.47 0.42 0.35 0.28 0.28 0.30 0.33 0.37 0.38 0.42 0.47 0.55 0.73 0.76 0.66 0.83 0.87 0.88 0.86 0.83 0.82 0.86 0.89 0.88 0.98 0.94 0.85 0.80 0.80
0.07 0.10 0.09 0.09 0.10 0.10 0.11 0.14 0.17 0.19 0.23 0.30 0.36 0.40 0.40 0.37 0.31 0.27 0.33 0.40 0.40 0.39 0.38 0.38 0.40 0.43 0.51 0.58 0.55 0.68 0.81 0.92 0.91 0.81 0.80 0.84 0.83 1.02 1.09 0.99 0.98 0.92 0.87
0.02 0.03 0.03 0.03 0.03 0.02 0.02 0.03 0.05 0.09 0.13 0.19 0.24 0.28 0.31 0.34 0.38 0.46 0.54 0.55 0.52 0.46 0.41 0.39 0.37 0.39 0.41 0.53 0.42 0.53 0.70 0.85 0.94 0.88 0.83 0.98 0.93 0.94 0.89 0.81 0.99 0.98 0.89
0.00 0.00 0.01 0.01 0.00 0.00 0.00 0.00 0.01 0.02 0.02 0.04 0.10 0.18 0.29 0.35 0.44 0.56 0.59 0.58 0.52 0.44 0.40 0.38 0.35 0.36 0.44 0.59 0.52 0.57 0.66 0.79 0.87 0.90 0.90 0.87 0.95 0.77 0.71 0.73 0.84 0.99 0.94
0.00 0.00 0.00 0.00 0.00 0.00 0.00 0.00 0.00 0.00 0.01 0.03 0.07 0.13 0.20 0.29 0.42 0.51 0.50 0.50 0.49 0.46 0.42 0.43 0.40 0.42 0.52 0.60 0.60 0.59 0.63 0.70 0.77 0.80 0.72 0.68 0.73 0.58 0.54 0.53 0.64 0.79 0.80
0.00 0.00 0.00 0.00 0.00 0.00 0.00 0.00 0.00 0.00 0.00 0.01 0.02 0.06 0.11 0.22 0.36 0.39 0.39 0.42 0.45 0.44 0.43 0.41 0.39 0.39 0.46 0.55 0.66 0.56 0.49 0.47 0.54 0.60 0.59 0.51 0.46 0.43 0.40 0.43 0.52 0.57 0.68
0.00 0.00 0.00 0.00 0.00 0.00 0.00 0.00 0.00 0.00 0.00 0.00 0.00 0.01 0.02 0.05 0.10 0.15 0.20 0.26 0.31 0.33 0.32 0.35 0.39 0.42 0.42 0.42 0.47 0.49 0.45 0.40 0.39 0.38 0.32 0.31 0.32 0.36 0.38 0.39 0.40 0.46 0.63
0.00 0.00 0.00 0.00 0.00 0.00 0.00 0.00 0.00 0.00 0.00 0.00 0.00 0.01 0.02 0.03 0.04 0.06 0.09 0.12 0.15 0.19 0.25 0.30 0.34 0.34 0.38 0.38 0.40 0.42 0.42 0.47 0.50 0.51 0.42 0.33 0.32 0.34 0.37 0.39 0.44 0.55 0.64
0.00 0.00 0.00 0.00 0.00 0.00 0.00 0.00 0.00 0.00 0.00 0.00 0.00 0.00 0.01 0.01 0.01 0.02 0.03 0.04 0.06 0.09 0.12 0.15 0.18 0.18 0.24 0.31 0.33 0.35 0.37 0.39 0.45 0.50 0.50 0.49 0.49 0.49 0.48 0.46 0.42 0.43 0.49